When you browse on this site, cookies collect data to enhance your experience and personalize the content and advertising you see.
Visit our Privacy Policy to learn more. By continuing to use the site, you agree to this use of cookies and data.
  • In Hungary
  • List of Countries
  • For 7 days
  • Water Temperature
  • Weather Map
  • News
  • Weather Widgets
  • user-avatar
    Login

    Hourly Weather Koprivnice

    Today, 22 August, Thursday

    Time Temperature Precipitation Wind Pressure Humidity
    00:00 +13°C° 0 mm 3 mps 738 mmHg 94%
    01:00 +12°C° 0 mm 3 mps 739 mmHg 93%
    02:00 +12°C° 0 mm 3 mps 738 mmHg 92%
    03:00 +12°C° 0 mm 3 mps 738 mmHg 92%
    04:00 +12°C° 0 mm 3 mps 738 mmHg 92%
    05:00 +13°C° 0 mm 4 mps 738 mmHg 88%
    06:00 +14°C° 0 mm 4 mps 738 mmHg 83%
    07:00 +15°C° 0 mm 4 mps 739 mmHg 79%
    08:00 +17°C° 0 mm 4 mps 739 mmHg 73%
    09:00 +19°C° 0 mm 4 mps 739 mmHg 67%
    10:00 +21°C° 0 mm 4 mps 739 mmHg 61%
    11:00 +21°C° 0 mm 4 mps 738 mmHg 60%
    12:00 +22°C° 0 mm 4 mps 738 mmHg 59%
    13:00 +23°C° 0 mm 4 mps 738 mmHg 58%
    14:00 +23°C° 0 mm 4 mps 738 mmHg 59%
    15:00 +23°C° 0 mm 4 mps 738 mmHg 61%
    16:00 +23°C° 0 mm 4 mps 737 mmHg 62%
    17:00 +21°C° 0 mm 3 mps 737 mmHg 69%
    18:00 +20°C° 0 mm 3 mps 737 mmHg 76%
    19:00 +18°C° 0 mm 2 mps 737 mmHg 82%
    20:00 +17°C° 0 mm 2 mps 737 mmHg 84%
    21:00 +17°C° 0 mm 2 mps 737 mmHg 87%
    22:00 +16°C° 0 mm 1 mps 737 mmHg 89%
    23:00 +16°C° 0 mm 1 mps 737 mmHg 90%

    Tomorrow, 23 August, Friday

    Time Temperature Precipitation Wind Pressure Humidity
    00:00 +15°C° 0 mm 1 mps 737 mmHg 91%
    01:00 +15°C° 0 mm 1 mps 737 mmHg 92%
    02:00 +15°C° 0 mm 1 mps 737 mmHg 93%
    03:00 +15°C° 0 mm 1 mps 737 mmHg 94%
    04:00 +14°C° 0 mm 1 mps 737 mmHg 94%
    05:00 +15°C° 0 mm 1 mps 737 mmHg 91%
    06:00 +16°C° 0 mm 2 mps 737 mmHg 88%
    07:00 +17°C° 0 mm 2 mps 737 mmHg 85%
    08:00 +19°C° 0 mm 2 mps 737 mmHg 79%
    09:00 +20°C° 0 mm 2 mps 738 mmHg 74%
    10:00 +23°C° 0 mm 2 mps 738 mmHg 68%
    11:00 +24°C° 0 mm 3 mps 738 mmHg 66%
    12:00 +25°C° 0 mm 3 mps 737 mmHg 64%
    13:00 +26°C° 0 mm 3 mps 737 mmHg 61%
    14:00 +26°C° 0 mm 3 mps 737 mmHg 63%
    15:00 +25°C° 0 mm 3 mps 737 mmHg 66%
    16:00 +25°C° 0 mm 3 mps 737 mmHg 68%
    17:00 +22°C° 0 mm 3 mps 736 mmHg 75%
    18:00 +21°C° 0 mm 3 mps 736 mmHg 81%
    19:00 +19°C° 0 mm 2 mps 736 mmHg 88%
    20:00 +19°C° 0 mm 2 mps 736 mmHg 90%
    21:00 +18°C° 0 mm 2 mps 736 mmHg 92%
    22:00 +19°C° 0 mm 1 mps 736 mmHg 94%
    23:00 +19°C° 0.1 mm 1 mps 736 mmHg 94%

    Day after tomorrow, 24 August, Saturday

    Time Temperature Precipitation Wind Pressure Humidity
    00:00 +18°C° 0.1 mm 1 mps 736 mmHg 94%
    01:00 +18°C° 0.1 mm 1 mps 735 mmHg 95%
    02:00 +18°C° 0.1 mm 1 mps 735 mmHg 95%
    03:00 +18°C° 0.1 mm 1 mps 735 mmHg 95%
    04:00 +18°C° 0.1 mm 1 mps 735 mmHg 95%
    05:00 +19°C° 0.2 mm 1 mps 735 mmHg 93%
    06:00 +20°C° 0.2 mm 1 mps 735 mmHg 91%
    07:00 +20°C° 0.2 mm 1 mps 735 mmHg 89%
    08:00 +22°C° 0.2 mm 1 mps 735 mmHg 83%
    09:00 +24°C° 0.2 mm 1 mps 735 mmHg 76%
    10:00 +26°C° 0.2 mm 1 mps 736 mmHg 70%
    11:00 +26°C° 0.5 mm 2 mps 735 mmHg 68%
    12:00 +27°C° 0.5 mm 2 mps 735 mmHg 65%
    13:00 +28°C° 0.5 mm 2 mps 735 mmHg 62%
    14:00 +28°C° 0.6 mm 2 mps 735 mmHg 63%
    15:00 +28°C° 0.6 mm 2 mps 734 mmHg 63%
    16:00 +28°C° 0.6 mm 2 mps 734 mmHg 64%
    17:00 +27°C° 0.1 mm 2 mps 734 mmHg 70%
    18:00 +25°C° 0.1 mm 2 mps 734 mmHg 75%
    19:00 +23°C° 0.1 mm 2 mps 734 mmHg 80%
    20:00 +23°C° 0.8 mm 1 mps 734 mmHg 83%
    21:00 +22°C° 0.8 mm 1 mps 734 mmHg 85%
    22:00 +21°C° 0.8 mm 1 mps 734 mmHg 87%
    23:00 +21°C° 1.1 mm 1 mps 734 mmHg 88%

    25 August, Sunday

    Time Temperature Precipitation Wind Pressure Humidity
    00:00 +21°C° 1.1 mm 1 mps 734 mmHg 88%
    01:00 +21°C° 1.1 mm 1 mps 733 mmHg 89%
    02:00 +21°C° 0.9 mm 1 mps 733 mmHg 89%
    03:00 +20°C° 0.9 mm 1 mps 733 mmHg 89%
    04:00 +20°C° 0.9 mm 1 mps 733 mmHg 88%
    05:00 +21°C° 0.2 mm 1 mps 733 mmHg 86%
    06:00 +22°C° 0.2 mm 1 mps 733 mmHg 84%
    07:00 +23°C° 0.2 mm 1 mps 733 mmHg 82%
    08:00 +25°C° 0 mm 1 mps 734 mmHg 73%
    09:00 +27°C° 0 mm 1 mps 734 mmHg 63%
    10:00 +29°C° 0 mm 1 mps 734 mmHg 54%
    11:00 +30°C° 0 mm 1 mps 734 mmHg 50%
    12:00 +31°C° 0 mm 1 mps 734 mmHg 46%
    13:00 +32°C° 0 mm 1 mps 734 mmHg 42%
    14:00 +32°C° 0 mm 1 mps 734 mmHg 45%
    15:00 +31°C° 0 mm 1 mps 733 mmHg 49%
    16:00 +30°C° 0 mm 1 mps 733 mmHg 52%
    17:00 +28°C° 3.3 mm 2 mps 733 mmHg 63%
    18:00 +25°C° 3.3 mm 4 mps 733 mmHg 74%
    19:00 +21°C° 3.3 mm 5 mps 733 mmHg 85%
    20:00 +20°C° 1 mm 4 mps 733 mmHg 85%
    21:00 +20°C° 1 mm 2 mps 733 mmHg 85%
    22:00 +20°C° 1 mm 1 mps 733 mmHg 85%
    23:00 +20°C° 0.3 mm 1 mps 733 mmHg 85%

    26 August, Monday

    Time Temperature Precipitation Wind Pressure Humidity
    00:00 +20°C° 0.3 mm 1 mps 733 mmHg 85%
    01:00 +21°C° 0.3 mm 1 mps 733 mmHg 84%
    02:00 +18°C° 0.1 mm 0 mps 733 mmHg 84%
    03:00 +18°C° 0.1 mm 0 mps 733 mmHg 84%
    04:00 +18°C° 0.1 mm 0 mps 733 mmHg 85%
    05:00 +19°C° 0 mm 0 mps 733 mmHg 82%
    06:00 +20°C° 0 mm 0 mps 733 mmHg 80%
    07:00 +21°C° 0 mm 0 mps 734 mmHg 78%
    08:00 +23°C° 0 mm 0 mps 734 mmHg 70%
    09:00 +26°C° 0 mm 0 mps 734 mmHg 62%
    10:00 +28°C° 0 mm 0 mps 735 mmHg 54%
    11:00 +30°C° 0 mm 1 mps 734 mmHg 52%
    12:00 +31°C° 0 mm 1 mps 734 mmHg 50%
    13:00 +31°C° 0 mm 1 mps 734 mmHg 48%
    14:00 +30°C° 0.5 mm 1 mps 734 mmHg 54%
    15:00 +29°C° 0.5 mm 2 mps 734 mmHg 59%
    16:00 +27°C° 0.5 mm 2 mps 733 mmHg 65%
    17:00 +26°C° 1.6 mm 2 mps 733 mmHg 72%
    18:00 +24°C° 1.6 mm 2 mps 733 mmHg 79%
    19:00 +21°C° 1.6 mm 2 mps 733 mmHg 86%
    20:00 +21°C° 0.2 mm 2 mps 733 mmHg 85%
    21:00 +21°C° 0.2 mm 1 mps 733 mmHg 84%
    22:00 +21°C° 0.2 mm 1 mps 734 mmHg 83%
    23:00 +21°C° 0.2 mm 1 mps 734 mmHg 82%

    27 August, Tuesday

    Time Temperature Precipitation Wind Pressure Humidity
    00:00 +21°C° 0.2 mm 1 mps 733 mmHg 82%
    01:00 +21°C° 0.2 mm 1 mps 733 mmHg 81%
    02:00 +21°C° 0.3 mm 1 mps 733 mmHg 81%
    03:00 +20°C° 0.3 mm 1 mps 733 mmHg 80%
    04:00 +20°C° 0.3 mm 1 mps 733 mmHg 80%
    05:00 +21°C° 0.3 mm 1 mps 733 mmHg 78%
    06:00 +22°C° 0.3 mm 1 mps 733 mmHg 76%
    07:00 +21°C° 0.3 mm 0 mps 733 mmHg 74%
    08:00 +24°C° 0 mm 0 mps 734 mmHg 67%
    09:00 +28°C° 0 mm 1 mps 734 mmHg 60%
    10:00 +30°C° 0 mm 1 mps 734 mmHg 53%
    11:00 +31°C° 0 mm 1 mps 734 mmHg 49%
    12:00 +31°C° 0 mm 1 mps 734 mmHg 46%
    13:00 +32°C° 0 mm 1 mps 734 mmHg 42%
    14:00 +32°C° 0 mm 1 mps 733 mmHg 46%
    15:00 +31°C° 0 mm 1 mps 733 mmHg 50%
    16:00 +31°C° 0 mm 1 mps 732 mmHg 54%
    17:00 +29°C° 0 mm 1 mps 732 mmHg 58%
    18:00 +27°C° 0 mm 1 mps 732 mmHg 61%
    19:00 +26°C° 0 mm 1 mps 732 mmHg 65%
    20:00 +25°C° 0 mm 1 mps 732 mmHg 66%
    21:00 +24°C° 0 mm 1 mps 732 mmHg 67%
    22:00 +24°C° 0 mm 1 mps 732 mmHg 68%
    23:00 +23°C° 0.1 mm 1 mps 732 mmHg 69%
    Show more